Location: Taipo
(41.0000°S, 175.9500°E)
Time: 12:06:13
(UTC+00:00)

CZ-4C R/B - Pass Details

Date: 18 April 2024
Orbit: 530 x 1463 km, 63.4° (Epoch: 24 May)

Event Time Altitude Azimuth Distance (km) Brightness Sun altitude
Exits shadow 16:04:43 21° 199° (SSW) 2,329 4.4 -31.8°
Drops below altitude 10° 16:08:29 10° 166° (SSE) 2,856 5.2 -31.1°
Sets 16:11:34 0° 150° (SSE) 3,641 6.0 -30.5°
